This is the latest recevied weather packets stored in our database for station/object DM1AS-13. If no packets are shown the sender has not sent any weather packets the latest 10 day(s).
| Time | Temp. | Humidity | Pressure | Rain* | Wind** | Luminosity | Snow |
|---|---|---|---|---|---|---|---|
| 1778064557 | 12.22° C | 94% | 1007.8 hPa | 0 mm | - | - | - |
| 1778063357 | 12.22° C | 94% | 1007.6 hPa | 0.51 mm | - | - | - |
| 1778062757 | 12.22° C | 94% | 1007.5 hPa | 0.51 mm | - | - | - |
| 1778059757 | 11.67° C | 94% | 1007.1 hPa | 0.76 mm | - | - | - |
| 1778056157 | 11.67° C | 94% | 1006.7 hPa | 1.78 mm | - | - | - |
| 1778049557 | 11.67° C | 93% | 1006.2 hPa | 0.51 mm | - | - | - |
| 1778041756 | 12.22° C | 93% | 1006.5 hPa | 5.08 mm | - | - | - |
| 1778039956 | 12.22° C | 93% | 1006.8 hPa | 5.08 mm | - | - | - |
| 1778038757 | 12.22° C | 92% | 1006.9 hPa | 2.29 mm | - | - | - |
| 1778037556 | 12.22° C | 92% | 1007 hPa | 0.25 mm | - | - | - |
| 1778035156 | 12.22° C | 92% | 1007.2 hPa | 0.25 mm | - | - | - |
| 1778033956 | 12.22° C | 91% | 1007.7 hPa | 0.25 mm | - | - | - |
| 1778030356 | 12.78° C | 91% | 1007.9 hPa | 0.51 mm | - | - | - |
| 1778027407 | 13.33° C | 90% | 1008.4 hPa | 0.25 mm | - | - | - |
| 1778027310 | 13.33° C | 90% | 1008.3 hPa | 0.25 mm | - | - | - |
| 1778027247 | 13.33° C | 90% | 1008.3 hPa | 0.25 mm | - | - | - |
| 1778025676 | 13.33° C | 89% | 1008.7 hPa | 0.25 mm | - | - | - |
| 1778023939 | 13.33° C | 89% | 1008.9 hPa | 0.25 mm | - | - | - |
| 1778022016 | 13.33° C | 87% | 1009.1 hPa | 0 mm | - | - | - |
| 1778019616 | 13.33° C | 86% | 1009.3 hPa | 0 mm | - | - | - |
| 1778016616 | 13.89° C | 85% | 1009.3 hPa | 0 mm | - | - | - |
| 1778014816 | 14.44° C | 85% | 1009.6 hPa | 0 mm | - | - | - |
| 1777998018 | 18.89° C | 72% | 1009.4 hPa | 0 mm | - | - | - |
| 1777995618 | 19.44° C | 71% | 1009.6 hPa | 0 mm | - | - | - |
| 1777995018 | 19.44° C | 72% | 1009.6 hPa | 0 mm | - | - | - |
* Rain latest hour (hover to see other rain measurements)
** Current wind speed in m/s (hover to see current wind gust speed)